Tracking 35331 objects as of 16-Sep-2026
HD Live streaming from Space Station
objects crossing your sky now

SL-4 DEB


SL-4 DEB is no longer on orbit


NORAD ID: 14216
Int'l Code: 1983-076C
Launch date: July 26, 1983
Source: Commonwealth of Independent States (former USSR) (CIS)
Launch site: PLESETSK MISSILE AND SPACE COMPLEX (PKMTR)
Decay date: 1983-09-14

Note: This is SATELLITE DEBRIS
Your satellite tracking list
Your tracking list is empty




NASA's NSSDC Master Catalog

Two Line Element Set (TLE):
1 14216U 83076  C 83255.72116584  .01819152 +84672-5 +99999-4 0  9993
2 14216 072.9805 003.8844 0052153 345.9072 014.0718 16.34285792007780
Source of the keplerian elements: AFSPC